Preview of NWS' New Version of Forecast
This preview is not operational and should not be used for support decisions.

Regional Weather Roundup (RWR)

Issued by Gray - Portland, ME (GYX)

                            
652 
ASUS41 KGYX 202105
RWRGYX
WEATHER ROUNDUP FOR MAINE AND NEW HAMPSHIRE
NATIONAL WEATHER SERVICE GRAY ME
500 PM EDT SUN MAY 20 2018

MEZ002-005-006-010-012-015-018-020-021-024-026-027-029-202200-
MAINE
  
CITY           SKY/WX    TMP DP  RH WIND       PRES   REMARKS
PORTLAND       FAIR      78  61  55 N15G26    29.83R                  
SANFORD        FAIR      77  59  53 W13G22    29.84R                  
BAR HARBOR     PTSUNNY   70  59  68 NW8       29.81R                  
WISCASSET      PTSUNNY   74  59  59 NW9G18    29.83R                  
ROCKLAND       PTSUNNY   73  65  75 VRB3      29.81R                  
FRYEBURG       FAIR      72  53  51 NW12      29.89R                  
LEWISTONAUBURN FAIR      72  54  53 NW17      29.86R                  
AUGUSTA        FAIR      72  52  49 NW17G30   29.86R                  
WATERVILLE     PTSUNNY   69  54  58 N10       29.83R                  
BANGOR         PTSUNNY   70  53  54 NW24G31   29.83R                  
GREENVILLE       N/A     62  45  53 NW14G26   29.84S                  
MILLINOCKET    FAIR      68  46  45 NW16G24   29.82R                  
HOULTON        FAIR      67  45  45 NW13G24   29.77R                  
PRESQUE ISLE   FAIR      64  30  27 NW16G29   29.80R                  
FRENCHVILLE    FAIR      60  35  39 NW20G30   29.81R                  
CARIBOU        FAIR      62  35  36 NW15G22   29.79R                  
$$

NHZ002-005-008-009-011-012-014-202200-
NEW HAMPSHIRE
  
CITY           SKY/WX    TMP DP  RH WIND       PRES   REMARKS
PORTSMOUTH     PTSUNNY   72  63  72 W7        29.83S                  
ROCHESTER      PTSUNNY   76  60  57 NW16G24   29.85R                  
NASHUA         PTSUNNY   72  64  76 NW10      29.87R                  
MANCHESTER     PTSUNNY   75  60  59 NW8G21    29.86R                  
CONCORD        PTSUNNY   74  58  57 NW13      29.88R                  
LACONIA        FAIR      71  54  54 NW18G24   29.90R                  
PLYMOUTH       PTSUNNY   67  53  60 NW12G17   29.91S                  
BERLIN         PTSUNNY   66  52  60 W7        29.92F                  
WHITEFIELD     PTSUNNY   64  55  72 W7        29.94S                  
JAFFREY        CLOUDY    68  62  81 VRB7      29.92R                  
KEENE          CLOUDY    68  65  90 NW3       29.91S                  
LEBANON        PTSUNNY   71  53  52 N12G21    29.93R                  
MT WASHINGTON  FOG       41  41 100 NW49G58     N/A  VSB 0            
$$

VTZ005-007-008-202200-
VERMONT
  
CITY           SKY/WX    TMP DP  RH WIND       PRES   REMARKS
ST JOHNSBURY     N/A     65  54  67 MISG      29.92F                  
MONTPELIER     CLOUDY    61  55  81 NW8       30.00R                  
BURLINGTON     PTSUNNY   68  51  54 NW15G23   29.96S                  
$$

MAZ007-012-024-CTZ003-RIZ002-NYZ038-NYZ072-202200-
SOUTHERN NEW ENGLAND AND NY
  
CITY           SKY/WX    TMP DP  RH WIND       PRES   REMARKS
WORCESTER      CLOUDY    69  66  90 W9        29.90S                  
NANTUCKET      FOG       57  57 100 SW17G25   29.90F VSB 3/4          
PROVIDENCE     PTSUNNY   74  69  85 SW10      29.87S                  
HARTFORD       LGT RAIN  72  63  73 NW10      29.91R                  
ALBANY         PTSUNNY   71  57  61 W15G29    29.96R                  
NEW YORK CITY  PTSUNNY   78  60  53 NW16G22   29.91S                  
$$

ANZ081-ANZ082-ANZ150-NHZ014-MEZ023>029-202200-
COASTAL MARINE OBSERVATIONS
  
STATION/POSITION TIME  TEMP    WIND        PRES    WAVE
                       AIR SEA DIR/SP/G            HT/PER
                 (UTC) (F)     (DEG/KT/KT) (MB)    (FT/S)
MOUNT DESERT ROC 2100   49     230/ 10/ 10 1010.3R
MATINICUS ROCK   2000   52     220/ 14/ 14 1009.0R
ISLE OF SHOALS   2000   73     290/ 17/ 19 1009.3F
JEFFREYS LEDGE   2036      51                N/A     3/ 6
CASHES LEDGE BUO 2050   53 49              1010.0R   4/ 6
$$

.............KEY..............
   WCI - WIND CHILL
   TC  - TEMPERATURE IN CELSIUS
   VSB - VISIBILITY IN MILES
   HX  - HEAT INDEX
   FAIR- INDICATES FEW OR NO CLOUDS BELOW 12,000 FT, WITH NO 
         SIGNIFICANT WEATHER AND/OR OBSTRUCTIONS TO VISIBILITY.